User: anonymous   Login
Location: Unspecified
(0.0000°N, 0.0000°E)
Time: 23:33:51
(UTC+00:00)
Language:

NOSS 3-2 (C) - Orbit

View from above orbital plane
View from above orbital plane
View from above satellite
View from above satellite

Ground track
Ground track

The orbit data is extracted from the following two-line orbital elements,

1 28097U 03054C   18135.93398291 0.00000000  00000-0  00000-0 0    03
2 28097  63.4215 187.7114 0332000 358.2206   1.7794 13.40746902    06
Epoch (UTC): 15 May 2018 22:24:56
Eccentricity: 0.0332000
inclination: 63.4215°
perigee height: 858 km
apogee height: 1355 km
right ascension of ascending node: 187.7114°
argument of perigee: 358.2206°
revolutions per day: 13.40746902
mean anomaly at epoch: 1.7794°
orbit number at epoch: 0

The dashed part of the orbit path shows where the satellite is in the earth's shadow,  

DLR